Location: Bishop�s Knoyle
(51.0728°N, 2.1714°W)
Time: 11:18:33
(UTC+00:00)

Envisat - Visible Passes

Search period start: 17 September 2021 00:00
Search period end: 27 September 2021 00:00
Orbit: 764 x 766 km, 98.2° (Epoch: 17 September)

Date Brightness Start Highest point End Pass type
(mag) Time Alt. Az. Time Alt. Az. Time Alt. Az.
17 Sep 6.0 03:57:25 10° NE 04:00:06 14° E 04:02:44 10° ESE visible
18 Sep 4.3 04:58:03 10° NNE 05:02:56 44° E 05:07:46 10° S visible
19 Sep 5.6 04:21:47 10° NE 04:25:46 23° E 04:29:44 10° SE visible
20 Sep 6.2 03:46:52 10° ENE 03:48:24 11° E 03:49:56 10° E visible
21 Sep 4.7 04:46:39 10° NNE 04:51:21 36° E 04:56:01 10° SSE visible
22 Sep 5.8 04:10:35 10° NE 04:14:08 19° E 04:17:39 10° SE visible
23 Sep 3.8 05:11:47 10° NNE 05:16:49 58° E 05:21:49 10° S visible
24 Sep 5.1 04:35:18 10° NNE 04:39:45 29° E 04:44:10 10° SSE visible
25 Sep 5.9 03:59:33 10° NE 04:02:28 15° E 04:05:21 10° ESE visible
26 Sep 4.2 05:00:20 10° NNE 05:05:16 47° E 05:10:09 10° S visible
